Regional Weather Roundup
Issued by NWS Wakefield, VA

Home | Current Version | Previous Version | Text Only | Print | Product List | Glossary On
Versions: 1 2 3 4 5 6 7 8 9 10 11 12 13 14 15 16 17 18 19 20 21 22 23 24 25 26 27 28 29 30 31 32 33 34 35 36 37 38 39 40 41 42 43
000
ASUS41 KAKQ 271210
RWRAKQ

REGIONAL WEATHER ROUNDUP
NATIONAL WEATHER SERVICE WAKEFIELD VA
700 AM EST SAT DEC 27 2014

Note: "fair" indicates few or no clouds below 12,000 feet with no
significant weather and/or obstructions to visibility. * = Denotes
station may not report precipitation (e.g., rain,snow,etc.),
thunder or fog.

VAZ042-051-052>054-056-271300-
NORTHERN VIRGINIA

CITY           SKY/WX    TMP DP  RH WIND       PRES   REMARKS
WASH NATIONAL  MOCLDY    39  33  79 SE3       30.26S
DULLES         MOCLDY    30  28  92 CALM      30.25S
FORT BELVOIR   MOCLDY    30  28  93 CALM      30.27S
QUANTICO       MOCLDY    33  30  88 NW6       30.28R
FREDERICKSBRG* PTCLDY    32  32 100 S6        30.26S
STAFFORD*      MOCLDY    30  30 100 CALM      30.30S
WARRENTON      MOCLDY    31  31 100 CALM      30.25R
CULPEPER*      MOCLDY    32  30  93 CALM      30.26R
MANASSAS*      NOT AVBL
LEESBURG*      PTCLDY    30  30 100 CALM      30.27S
WINCHESTER     PTCLDY    34  28  80 CALM      30.25R
FRONT ROYAL*   PTSUNNY   41  28  60 S5        30.24R
LURAY*         PTSUNNY   36  34  93 S5        30.26R
$$

VAZ048-049-060>072-079>083-271300-
CENTRAL AND SOUTH CENTRAL VIRGINIA

CITY           SKY/WX    TMP DP  RH WIND       PRES   REMARKS
RICHMOND       PTCLDY    31  27  85 S5        30.29R
CHESTERFIELD*  SUNNY     28  16  59 CALM      30.30R
PETERSBURG*    CLEAR     28  28  96 CALM      30.31S
HANOVER        CLEAR     28  27  96 CALM      30.30R FOG
TAPPAHANNOCK*  CLEAR     29  27  90 CALM      30.29R
QUINTON*       SUNNY     28  28  96 CALM      30.30R
CHARLOTTSVILLE MOCLDY    34  30  85 CALM      30.25R
GORDONSVILLE*  PTSUNNY   31  30  95 CALM      30.26R
ORANGE*        MOCLDY    32  32 100 CALM      30.27R
LOUISA*        PTCLDY    32  30  93 CALM      30.25R
BUMPASS*       PTSUNNY   30  29  96 CALM      30.27R
FARMVILLE*     CLEAR     29  29 100 CALM      30.26S
CREWE*         SUNNY     30  29  96 CALM      30.28R
FORT PICKETT*  SUNNY     33  33  98 CALM      30.28S
CHASE CITY*    SUNNY     32  32 100 CALM      30.28F
CLARKSVILLE*   SUNNY     30  30 100 SE3       30.28S
SOUTH HILL*    CLEAR     30  28  93 CALM      30.35S
LAWRENCEVILLE* SUNNY     32  32 100 CALM      30.29S
EMPORIA*       CLEAR     27  27 100 CALM      30.33R
$$

VAZ088>098-271300-
SOUTHEAST VIRGINIA

CITY           SKY/WX    TMP DP  RH WIND       PRES   REMARKS
NORFOLK        CLEAR     37  34  89 SW3       30.32R
VIRGINIA BEACH CLEAR     34  31  88 SW3       30.31R
NORFOLK NAVAL  PTCLDY    42  35  76 SW3       30.33R
WEST POINT*    CLEAR     31  29  91 CALM      30.32R
SALUDA*        FAIR      33  31  96 CALM      30.29R
NEWPORT NEWS   CLEAR     33  29  85 CALM      30.32R
LANGLEY AFB    CLEAR     34  32  93 W2        30.32R FOG
FORT EUSTIS    CLEAR     33  33 100 CALM      30.30R
WILLIAMSBURG*  CLEAR     34  34 100 CALM      30.32R
HR EXEC AP*    SUNNY     27  25  93 CALM      30.34R
FRANKLIN*      CLEAR     28  28 100 CALM      30.33R
WAKEFIELD      CLEAR     31  27  85 CALM      30.32R
$$

VAZ020-022-025-037-045-271300-
WEST CENTRAL AND SOUTHWEST VIRGINIA

CITY           SKY/WX    TMP DP  RH WIND       PRES   REMARKS
STAUNTON*      MOCLDY    34  29  83 CALM      30.28R
WAYNESBORO*    PTSUNNY   35  28  74 CALM      30.26R
HOT SPRINGS VA CLOUDY    44   9  24 W12       30.22R
LYNCHBURG      PTCLDY    32  31  96 CALM      30.27R
DANVILLE       PTCLDY    31  27  85 CALM      30.29R
SOUTH BOSTON*  SUNNY     29  28  95 CALM      30.29R
MARTINSVILLE   PTCLDY    30  30 100 CALM      30.29S
ROANOKE        PTCLDY    36  28  73 N8        30.29R
BLACKSBURG     PTCLDY    32  28  85 CALM      30.29S
DUBLIN*        PTCLDY    34  31  89 CALM      30.29R
MARION*        PTCLDY    39  26  61 W9        30.29S
HILLSVILLE*    MIX PCPN  39  27  62 SW3       30.26R
RICHLANDS*     MOSUNNY   44  14  30 SE3       30.26S
WISE*          CLOUDY    45  18  33 S5        30.25S
ABINGDON*      MOCLDY    40  30  65 CALM      30.28R
$$

MDZ021>025-VAZ099-100-271300-
SOUTHERN MARYLAND AND THE DELMARVA PENINSULA

CITY           SKY/WX    TMP DP  RH WIND       PRES   REMARKS
PATUXENT RIVER MOCLDY    35  31  85 S5        30.27R
BAY BRIDGE APT   N/A     36  36 100 CALM      30.28R
LEONARDTOWN    MOCLDY    37  34  87 CALM      30.29R
DOVER          MOCLDY    34  34 100 S6        30.26R
GEORGETOWN     FOG       33  31  92 CALM      30.29R VSB 1/4
EASTON         CLEAR     36  36 100 CALM      30.31S
CAMBRIDGE      CLOUDY    36  34  93 SE3       30.28R
SALISBURY      MOCLDY    33  30  88 SE3       30.29R FOG
OCEAN CITY     MOCLDY    33  32  96 CALM      30.30R FOG
WALLOPS ISLAND PTCLDY    32  31  96 SW3       30.30R
ACCOMACK*      FOG       32  32 100 SW5       30.30R VSB 3/4
$$

NCZ012>017-030>032-271300-
NORTH CENTRAL AND EASTERN NORTH CAROLINA

CITY           SKY/WX    TMP DP  RH WIND       PRES   REMARKS
ROANOKE RAPIDS SUNNY     32  32 100 SW3       30.32R
RALEIGH        PTCLDY    32  30  92 CALM      30.31R
ELIZABETH CITY FOG       36  33  89 CALM      30.33R VSB 1/2
AHOSKIE*       CLEAR     29  29  97 CALM      30.33R
EDENTON*         N/A     34  34  97 CALM      30.33R
CURRITUCK*     CLEAR     35  34  96 CALM      30.33R
KILL DEVIL HLS CLEAR     43  42  97 SW3       30.31R
MANTEO         FOG       34  34 100 CALM      30.33R VSB 1/2
CAPE HATTERAS  CLEAR     38  38 100 NW5       30.32R
TARBORO*       PTSUNNY   32  31  99 CALM      30.33R FOG
GOLDSBORO      FOG       32  32 100 CALM      30.31R VSB 1/4
WASHINGTON     CLEAR     32  31  95 CALM      30.32S
GREENVILLE     CLEAR     32  32 100 CALM      30.32S
NEW BERN       FOG       34  31  88 CALM      30.33R VSB 1/4
WILMINGTON     CLEAR     35  33  92 CALM      30.31R
$$

VAZ048-271300-
ELSEWHERE

CITY           SKY/WX    TMP DP  RH WIND       PRES   REMARKS
HARRISBURG PA  MOCLDY    28  26  92 E3        30.25S
BALTIMORE      MOCLDY    32  29  88 CALM      30.26R
ANNAPOLIS      CLOUDY    36  34  92 CALM      30.27R
ANDREWS AFB    MOCLDY    37  33  87 N2        30.25R
PHILADELPHIA   MOCLDY    35  31  85 SW3       30.27R
HENDERSON NC   CLEAR     31  30  94 SW3       30.29S
GREENSBORO     PTCLDY    35  31  85 SW3       30.27R
ROCKY MOUNT    CLEAR     33  31  92 CALM      30.31R
$$

VAZ100-271300-
MARINE

STATION/POSITION TIME  TEMP    WIND        PRES    WAVE   SWELL
                       AIR SEA DIR/SP/G            HT/PER HT/PER
                 (UTC) (F)     (DEG/KT/KT) (MB)    (FT/S) (FT/S)
CAPE MAY NJ      1200   41 45  280/  4/  5 1025.2S
LEWES DE         1200   39 44  220/  2/  3 1025.3F
15NM E FENWICK I 1100   44 45              1025.2R   2/17
OCEAN-CITY-INLET 1200   41 45  310/  1/  2 1025.5R
WACHAPREAGUE VA  1200   38 45  280/  2/  2 1026.1R
THOMAS POINT MD  1200   40 42   CALM  /  1 1026.3R
GOOSES REEF MD   1200   42     VRB  4/  6  1024.2R
COVE POINT MD    1200   42     210/  5/  7 1025.0F
SOLOMONS ISLAND  1200      43                N/A
BISHOPS HEAD MD  1200   43 43  180/  2/  3 1024.9R
PINEY POINT MD   1200          240/  2/  2   N/A
POTOMAC MD       1200   43     230/  4/  6 1024.4R
CAMBRIDGE MD     1200   38 42  160/  1/  2 1025.1R
LEWISETTA VA     1200   41 44     CALM     1025.2R
RAPPAHANNOCK LGT 1200          210/  6/  6 1026.5R
STINGRAY PT      1200   43     230/  4/  4 1026.3R
YORK RVR RNG VA  1200   42     280/  5/  5 1025.9R
YORKTOWN VA      1200   40 46  260/  1/  2 1026.3R
JAMESTOWN VA     1200   39     260/  4/  4   N/A
DOMINION TERM VA 1200   43     280/  3/  4 1026.6R
KIPTOPEKE VA     1200      50  280/  4/  5   N/A
CHES BAY BRIDGE  1200   43 45  230/  7/  7 1026.0R
CAPE HENRY VA    1200   43     240/  7/  9 1025.0R
CHESAPEAKE LGHT  1100   46     230/  9/ 10 1026.1R
WILLOUBY STN VA  1200   43     240/  7/  7 1026.8R
S CRANEY ISL VA  1200          230/  3/  4 1026.6R
CAPE HENRY BUOY  1200      48                N/A     2/17   2/17
1ST LANDING BUOY 1200   44     240/  6/  8 1025.6R
CAPE CHARLES BUO 1200      48                N/A     1/17   2/17
64NM E OF VA BCH 1200   52 52  280/  6/  8 1025.6R   2/17   2/17
DUCK PIER NC     1200   47 51  240/  6/  7 1025.7R
44100 DUCK FRF   1100      50                N/A     2/12   2/12
44056 DUCK FRF   1200      50                N/A     2/12   2/12
OREGON INLET NC  1200   47 53  250/  4/  5 1026.6R
HATTERAS NC      1200   48 56  330/  1/  2 1027.0R
DIAMOND SHLS NC  1200   56                 1026.8R   3/ 9
CAPE LOOKOUT NC  1100   52      30/  1/  1 1025.7R
$$


USA.gov is the U.S. government's official web portal to all federal, state and local government web resources and services.